This is the latest recevied weather packets stored in our database for station/object KK4WXG. If no packets are shown the sender has not sent any weather packets the latest 10 day(s).
| Time | Temp. | Humidity | Pressure | Rain* | Wind** | Luminosity | Snow |
|---|---|---|---|---|---|---|---|
| 1778156314 | 12.22° C | 53% | 1013.1 hPa | 0 mm | - | 132 W/m² | - |
| 1778156009 | 12.22° C | 55% | 1012.9 hPa | 0 mm | - | 106 W/m² | - |
| 1778155706 | 11.67° C | 55% | 1013 hPa | 0 mm | - | 103 W/m² | - |
| 1778155402 | 11.67° C | 54% | 1012.7 hPa | 0 mm | - | 114 W/m² | - |
| 1778155098 | 11.67° C | 56% | 1012.8 hPa | 0 mm | - | 108 W/m² | - |
| 1778154794 | 11.67° C | 55% | 1012.8 hPa | 0 mm | - | 92 W/m² | - |
| 1778154490 | 11.67° C | 55% | 1012.9 hPa | 0 mm | - | 64 W/m² | - |
| 1778154188 | 11.67° C | 54% | 1012.6 hPa | 0 mm | - | 61 W/m² | - |
| 1778153885 | 11.67° C | 56% | 1012.6 hPa | 0 mm | - | 82 W/m² | - |
| 1778153582 | 11.67° C | 57% | 1012.5 hPa | 0 mm | - | 52 W/m² | - |
| 1778153280 | 11.67° C | 56% | 1012.5 hPa | 0 mm | - | 51 W/m² | - |
| 1778152976 | 11.67° C | 57% | 1012.8 hPa | 0 mm | - | 46 W/m² | - |
| 1778152674 | 11.67° C | 59% | 1012.7 hPa | 0 mm | - | 49 W/m² | - |
| 1778152370 | 11.67° C | 57% | 1012.8 hPa | 0 mm | - | 55 W/m² | - |
| 1778152067 | 11.67° C | 56% | 1012.6 hPa | 0 mm | - | 46 W/m² | - |
| 1778151763 | 11.67° C | 54% | 1012.6 hPa | 0 mm | - | 38 W/m² | - |
| 1778151460 | 11.67° C | 56% | 1012.6 hPa | 0 mm | - | 36 W/m² | - |
| 1778151156 | 11.67° C | 55% | 1012.8 hPa | 0 mm | - | 30 W/m² | - |
| 1778150853 | 11.67° C | 56% | 1012.5 hPa | 0 mm | - | 25 W/m² | - |
| 1778150550 | 11.67° C | 55% | 1012.4 hPa | 0 mm | - | 23 W/m² | - |
| 1778150246 | 11.67° C | 55% | 1012.2 hPa | 0 mm | - | 17 W/m² | - |
| 1778149942 | 11.67° C | 54% | 1012.2 hPa | 0 mm | - | 15 W/m² | - |
| 1778149639 | 11.67° C | 53% | 1012.2 hPa | 0 mm | - | 9 W/m² | - |
| 1778149336 | 11.67° C | 54% | 1011.9 hPa | 0 mm | - | 4 W/m² | - |
| 1778149032 | 11.67° C | 54% | 1012.1 hPa | 0 mm | - | 3 W/m² | - |
* Rain latest hour (hover to see other rain measurements)
** Current wind speed in m/s (hover to see current wind gust speed)